Regional Weather Roundup
Issued by NWS

Home | Current Version | Previous Version | Text Only | Print | Product List | Glossary Off
Versions: 1 2 3 4 5 6 7 8 9 10 11 12 13 14 15 16 17 18 19 20 21 22 23 24 25 26 27 28 29 30 31 32 33 34 35 36 37 38 39 40 41 42 43 44 45 46 47 48 49 50

000
ASUS43 KLMK 010602
RWRKY
KENTUCKY REGIONAL WEATHER ROUNDUP
NATIONAL WEATHER SERVICE LOUISVILLE KY
200 AM EDT FRI AUG 01 2014

NOTE "FAIR" INDICATES FEW OR NO CLOUDS BELOW 12,000 FEET
WITH NO SIGNIFICANT WEATHER AND/OR OBSTRUCTIONS TO VISIBILITY.

KYZ001>023-026-027-061>063-070>075-010700-
WESTERN AND SOUTH CENTRAL KENTUCKY

CITY           SKY/WX    TMP DP  RH WIND       PRES   REMARKS
PADUCAH        CLEAR     63  60  90 W3        30.06F FOG
HENDERSON      CLEAR     63  59  88 CALM      30.07S
OWENSBORO      CLEAR     66  62  87 CALM      30.07F
HOPKINSVILLE   CLEAR     69  61  76 N6        30.06F
BOWLING GREEN  PTCLDY    66  60  81 CALM      30.08S
GLASGOW        PTCLDY    64  61  91 CALM      30.08F
$$

KYZ024-025-028>034-038-045-046-053-010700-
NORTH CENTRAL KENTUCKY

CITY           SKY/WX    TMP DP  RH WIND       PRES   REMARKS
LOUISVILLE/SDF PTCLDY    68  59  73 CALM      30.08F
LOUISVILLE/LOU CLEAR     66  58  75 CALM      30.09F
FORT KNOX      CLEAR     60  59  94 CALM      30.08F
$$

KYZ035>037-039>044-047>052-055>060-089>105-010700-
NORTHEAST KENTUCKY

CITY           SKY/WX    TMP DP  RH WIND       PRES   REMARKS
LEXINGTON      PTCLDY    66  59  78 CALM      30.11S
COVINGTON      CLEAR     68  60  75 CALM      30.10F
FRANKFORT      CLEAR     62  59  90 CALM      30.09F
$$

KYZ054-064>069-076>088-106>120-010700-
SOUTHEAST KENTUCKY

CITY           SKY/WX    TMP DP  RH WIND       PRES   REMARKS
JACKSON        MOCLDY    67  60  78 NE3       30.12F
LONDON         MOCLDY    66  60  81 CALM      30.11F
SOMERSET       MOCLDY    63  63 100 CALM      30.11S
MIDDLESBORO    PTCLDY    63  62  96 CALM      30.12F
MONTICELLO     PTCLDY    61  60  96 CALM      30.12S FOG
$$




USA.gov is the U.S. government's official web portal to all federal, state and local government web resources and services.